Tiempo atmosférico en la estación meteorológica de Padrón, A Coruña (100 m.)



Fecha
DESCASC
Temp. máxima en grados centígrados (hora)
DESCASC
Temp. mínima en grados centígrados (hora)
DESCASC
Temp. media en grados centígrados
DESCASC
Racha de viento máxima en m/sg (hora)
DESCASC
Velocidad máxima media en intervalos de 10 minutos(hora)
DESCASC
Precipitaciones diarias en mm
DESCASC
Precipitaciones de 00:00 a 06:00 en mm
DESCASC
Precipitaciones de 06:00 a 12:00 en mm
DESCASC
Precipitaciones de 12:00 a 18:00 en mm
DESCASC
Precipitaciones de 18:00 a 24:00 en mm
DESCASC
22-11-2020 18.5 (16:00) 3.7 (09:20) 11.1 6.94 (09:50) 5.28 (06:10) 0 0 0 0 0
21-11-2020 20 (16:10) 5.4 (09:10) 12.7 6.11 (09:30) 5 (09:30) 0 0 0 0 0
20-11-2020 17.3 (15:40) 8.8 (08:40) 13 11.11 (13:40) 7.5 (14:00) 0 0 0 0 0
19-11-2020 19 (15:30) 11.1 (00:00) 15.1 10.28 (10:30) 6.67 (12:10) 0.1 0.1 0 0 0
18-11-2020 17.7 (14:30) 14.3 (00:00) 16 8.33 (09:10) 4.17 (13:30) 5.6 3.1 0.7 0 1.8
17-11-2020 17.8 (15:00) 5.5 (00:00) 11.6 6.94 (04:20) 4.72 (06:00) 0.5 0 0 0 0.5
16-11-2020 15.1 (15:40) 7.9 (00:00) 11.5 5.83 (10:50) 4.44 (11:00) 0.2 0.1 0 0.1 0
15-11-2020 16.4 (04:30) 10.9 (00:00) 13.6 13.89 (04:40) 6.39 (05:40) 25 15.9 5.2 3.9 0
14-11-2020 17.3 (12:20) 12.1 (00:00) 14.7 10.56 (18:30) 4.17 (18:50) 5.2 0 0 0.2 5
13-11-2020 18.1 (14:00) 8 (00:00) 13.1 5.83 (08:20) 4.17 (08:10) 0 0 0 0 0
12-11-2020 19 (15:00) 11.5 (00:00) 15.3 6.67 (00:40) 2.78 (00:40) 1.5 1.5 0 0 0
11-11-2020 15.8 (14:00) 6.8 (00:00) 11.3 10.56 (18:00) 3.89 (02:10) 1.1 0 0 0 1.1
10-11-2020 18.3 (15:50) 8.5 (00:00) 13.4 5.56 (08:10) 4.17 (08:10) 0 0 0 0 0
09-11-2020 17.6 (15:00) 9.8 (00:00) 13.7 10.28 (01:40) 3.89 (01:40) 19.5 16.7 1.9 0.9 0
08-11-2020 16.7 (12:10) 12.1 (00:00) 14.4 11.67 (14:20) 5 (14:20) 19.6 11.2 5.3 0.9 2.2
07-11-2020 15.3 (15:30) 11.4 (00:00) 13.3 9.17 (14:50) 3.89 (11:20) 15 0 0.5 13.2 1.3
06-11-2020 17.3 (11:00) 12.4 (00:00) 14.8 11.39 (06:10) 7.5 (05:20) 6.9 0 0.2 5.6 1.1
05-11-2020 16.2 (16:10) 8.3 (00:00) 12.3 14.17 (11:40) 11.39 (11:40) 0 0 0 0 0
04-11-2020 14.3 (14:50) 2.9 (00:00) 8.6 15 (22:20) 8.89 (22:50) 0 0 0 0 0
03-11-2020 15.3 (14:50) 6.4 (00:00) 10.9 10.28 (12:10) 5 (12:10) 0 0 0 0 0
02-11-2020 17.1 (00:00) 7.9 (00:00) 12.5 10.83 (05:10) 3.89 (01:20) 7.3 2.4 4.9 0 0
01-11-2020 17.6 (14:40) 16 (00:00) 16.8 10.28 (17:30) 4.17 (17:30) 13.6 4.3 3.8 4.2 1.3
31-10-2020 17 (14:50) 14.2 (00:00) 15.6 10 (23:00) 3.89 (12:40) 1.7 0.1 0.4 0.1 1.1
30-10-2020 19.3 (14:00) 7.2 (00:00) 13.2 4.72 (01:10) 3.33 (01:10) 0 0 0 0 0
29-10-2020 17.6 (15:20) 9 (00:00) 13.3 4.72 (16:00) 3.06 (23:40) 0 0 0 0 0
28-10-2020 18 (14:10) 11.3 (00:00) 14.7 5.83 (15:30) 2.5 (15:30) 0.6 0 0.5 0 0.1
27-10-2020 14.9 (18:10) 10.8 (00:00) 12.8 10 (06:50) 4.17 (11:10) 7.5 0.2 0.7 5.4 1.2

Gráficas

Temp. máximas Temp. mínimas Temp. medias Precipitaciones Rachas de viento máximas Velocidades máximas media en intervalos de 10 minutos

Datos horarios

Fecha y hora oficial Temperatura (ºC) Velocidad del viento (km/h) Dirección del viento Racha (km/h) Dirección de racha Precipitación (mm) Presión (hPa) Tendencia (hPa) Humedad (%)
2020-11-25 23:00:00 8.8 8 Este 18 Este 0 -- -- 93
2020-11-25 22:00:00 8.8 5 Este 11 Este 0.1 -- -- 93
2020-11-25 21:00:00 9 6 Este 18 Sudeste 0 -- -- 93
2020-11-25 20:00:00 9.1 5 Este 15 Este 0.1 -- -- 93
2020-11-25 19:00:00 9.3 13 Este 16 Este 0 -- -- 93
2020-11-25 18:00:00 9.6 3 Nordeste 13 Sudeste 0 -- -- 91
2020-11-25 17:00:00 9.8 9 Este 15 Sudeste 0 -- -- 91
2020-11-25 16:00:00 10 5 Este 17 Este 0 -- -- 91
2020-11-25 15:00:00 10 5 Nordeste 12 Este 0 -- -- 89
2020-11-25 14:00:00 10.4 5 Este 16 Este 0 -- -- 86
2020-11-25 13:00:00 10.3 9 Este -- -- -- -- -- 91
2020-11-25 12:00:00 9.6 5 Este 10 Este 0 -- -- 96
2020-11-25 11:00:00 9.1 4 Este 12 Nordeste 0 -- -- 96
2020-11-25 10:00:00 8.7 6 Nordeste 9 Este 0 -- -- 96
2020-11-25 09:00:00 8.7 5 Este 8 Este 0 -- -- 96
2020-11-25 08:00:00 8.9 4 Nordeste 7 Nordeste 0 -- -- 95
2020-11-25 07:00:00 9.2 3 Nordeste 7 Nordeste 0.1 -- -- 95
2020-11-25 06:00:00 9.5 0 Calma 7 Nordeste 0.2 -- -- 95
2020-11-25 05:00:00 9.5 5 Nordeste 11 Nordeste 0.1 -- -- 95
2020-11-25 04:00:00 9.5 6 Nordeste 8 Nordeste 0 -- -- 95
2020-11-25 03:00:00 9.8 3 Este 9 Sudeste 3.6 -- -- 95
2020-11-25 02:00:00 10.3 0 Calma 13 Norte 0.9 -- -- 95
2020-11-25 01:00:00 11.1 2 Norte 17 Oeste 2.3 -- -- 95
2020-11-25 00:00:00 11.7 3 Oeste 10 Oeste 6.9 -- -- 95
2020-11-24 23:00:00 11.8 5 Noroeste 15 Sudoeste 8.2 -- -- 94
2020-11-24 22:00:00 11.7 7 Oeste 31 Sur 3.6 -- -- 93
2020-11-24 21:00:00 12 7 Sudoeste 30 Sur 3.1 -- -- 93
2020-11-24 20:00:00 12.1 7 Oeste 31 Sur 2 -- -- 91
2020-11-24 19:00:00 12.9 12 Sudoeste 31 Sudoeste 0.1 -- -- 86
2020-11-24 18:00:00 13.3 14 Sudoeste 35 Sudoeste 0 -- -- 81
2020-11-24 17:00:00 12.6 11 Sudoeste 26 Sudoeste 0.3 -- -- 90
2020-11-24 16:00:00 12.3 5 Oeste 12 Oeste 0 -- -- 91
2020-11-24 15:00:00 12.1 4 Noroeste 10 Noroeste 0 -- -- 91
2020-11-24 14:00:00 11.4 3 Noroeste 10 Oeste 0 -- -- 96
2020-11-24 13:00:00 9.1 2 Nordeste 14 Nordeste 0 -- -- 97
2020-11-24 12:00:00 6.8 10 Nordeste 17 Nordeste 0 -- -- 97
2020-11-24 11:00:00 5.7 13 Nordeste 18 Nordeste 0 -- -- 97
2020-11-24 10:00:00 5.1 12 Nordeste 19 Nordeste 0 -- -- 97
2020-11-24 09:00:00 4.6 12 Este 20 Nordeste 0 -- -- 97
2020-11-24 08:00:00 4.8 13 Nordeste 19 Este 0 -- -- 97
2020-11-24 07:00:00 4.9 12 Nordeste 21 Nordeste 0 -- -- 97
2020-11-24 06:00:00 4.5 12 Este 20 Nordeste 0 -- -- 97
2020-11-24 05:00:00 4.7 6 Este 15 Este 0 -- -- 97
2020-11-24 04:00:00 5.1 6 Nordeste 17 Este 0 -- -- 97
2020-11-24 03:00:00 5.3 8 Nordeste 16 Este 0 -- -- 96
2020-11-24 02:00:00 5.7 11 Este 15 Nordeste 0 -- -- 96
2020-11-24 01:00:00 6.3 8 Este 14 Nordeste 0 -- -- 96
2020-11-24 00:00:00 6.7 7 Nordeste 15 Nordeste 0 -- -- 96
2020-11-23 23:00:00 7 9 Este 13 Nordeste 0 -- -- 95
2020-11-23 22:00:00 7.6 9 Nordeste 12 Este 0 -- -- 93
2020-11-23 21:00:00 8.5 0 Calma 8 Nordeste 0 -- -- 90
2020-11-23 20:00:00 9.1 6 Nordeste 9 Nordeste 0 -- -- 88
2020-11-23 19:00:00 10.3 6 Nordeste 8 Nordeste 0 -- -- 82
2020-11-23 18:00:00 11.4 0 Calma 5 Oeste 0 -- -- 74
2020-11-23 17:00:00 14.2 0 Calma 6 Oeste 0 -- -- 65
2020-11-23 16:00:00 16 3 Oeste 7 Oeste 0 -- -- 56
2020-11-23 15:00:00 15.3 0 Calma 10 Este 0 -- -- 58
2020-11-23 14:00:00 12.5 9 Este 16 Este 0 -- -- 66
2020-11-23 13:00:00 10.1 12 Este 21 Este 0 -- -- 82
2020-11-23 12:00:00 6.7 15 Este 23 Este 0 -- -- 96
2020-11-23 11:00:00 4.6 17 Nordeste 23 Este 0 -- -- 97
2020-11-23 10:00:00 3.4 16 Este 23 Este 0 -- -- 97
2020-11-23 09:00:00 2.1 16 Este 23 Nordeste 0 -- -- 97
2020-11-23 08:00:00 2.2 18 Este 22 Este 0 -- -- 97
2020-11-23 07:00:00 2.6 15 Este 22 Este 0 -- -- 97
2020-11-23 06:00:00 3.2 14 Este 24 Nordeste 0 -- -- 97
2020-11-23 05:00:00 3.2 16 Este 21 Nordeste 0 -- -- 96
2020-11-23 04:00:00 4 16 Este 22 Nordeste 0 -- -- 96
2020-11-23 03:00:00 5.5 14 Este 23 Nordeste 0 -- -- 96
2020-11-23 02:00:00 5.4 14 Nordeste 20 Este 0 -- -- 96
2020-11-23 01:00:00 5.8 15 Este 23 Nordeste 0 -- -- 95
2020-11-23 00:00:00 6.4 16 Este 22 Este 0 -- -- 94
2020-11-22 23:00:00 7.6 13 Nordeste 19 Este 0 -- -- 94
2020-11-22 22:00:00 7.8 13 Este 18 Este 0 -- -- 93
2020-11-22 21:00:00 8 8 Este 13 Nordeste 0 -- -- 90
2020-11-22 20:00:00 9.5 9 Nordeste 11 Este 0 -- -- 86
2020-11-22 19:00:00 11 9 Nordeste 11 Nordeste 0 -- -- 78
2020-11-22 18:00:00 13.5 3 Nordeste 6 Nordeste 0 -- -- 68
2020-11-22 17:00:00 15.9 0 Calma 4 Oeste 0 -- -- 59
2020-11-22 16:00:00 17.8 0 Calma 7 Sudoeste 0 -- -- 51
2020-11-22 15:00:00 16.3 0 Calma 10 Este 0 -- -- 57
2020-11-22 14:00:00 14.2 7 Este 13 Este 0 -- -- 64
2020-11-22 13:00:00 12.5 10 Este 18 Este 0 -- -- 70
2020-11-22 12:00:00 9.6 12 Este 23 Este 0 -- -- 88
2020-11-22 11:00:00 6.9 14 Este 25 Este 0 -- -- 97
2020-11-22 10:00:00 4.9 17 Este 25 Nordeste 0 -- -- 97
2020-11-22 09:00:00 3.8 17 Nordeste 23 Este 0 -- -- 97
2020-11-22 08:00:00 4.1 17 Nordeste 24 Nordeste 0 -- -- 97
2020-11-22 07:00:00 4.3 17 Nordeste 23 Nordeste 0 -- -- 97
2020-11-22 06:00:00 4.8 18 Nordeste 24 Nordeste 0 -- -- 96
2020-11-22 05:00:00 5.1 14 Nordeste 19 Nordeste 0 -- -- 96
2020-11-22 04:00:00 5.6 14 Nordeste 20 Este 0 -- -- 96
2020-11-22 03:00:00 6 11 Nordeste 20 Nordeste 0 -- -- 96
2020-11-22 02:00:00 6.9 12 Nordeste 19 Nordeste 0 -- -- 96
2020-11-22 01:00:00 7.3 12 Este 18 Nordeste 0 -- -- 95
2020-11-22 00:00:00 8.5 11 Nordeste 18 Nordeste 0 -- -- 95
2020-11-21 23:00:00 8.3 6 Este 15 Nordeste 0 -- -- 94
2020-11-21 22:00:00 9.2 10 Este 13 Nordeste 0 -- -- 91
2020-11-21 21:00:00 9.7 6 Este 13 Este 0 -- -- 89
2020-11-21 20:00:00 11 8 Nordeste 10 Nordeste 0 -- -- 84
2020-11-21 19:00:00 12.2 6 Nordeste 8 Nordeste 0 -- -- 77
2020-11-21 18:00:00 13.5 0 Calma 2 Oeste 0 -- -- 73
2020-11-21 17:00:00 16.8 0 Calma 3 Oeste 0 -- -- 60
2020-11-21 16:00:00 19.9 0 Calma 4 Sudoeste 0 -- -- 48
2020-11-21 15:00:00 18.9 0 Calma 10 Este 0 -- -- 50
2020-11-21 14:00:00 17.1 5 Este 10 Este 0 -- -- 53
2020-11-21 13:00:00 15.5 7 Este 18 Este 0 -- -- 56
2020-11-21 12:00:00 13.5 10 Este 21 Este 0 -- -- 68
2020-11-21 11:00:00 10.7 12 Este 20 Este 0 -- -- 83
2020-11-21 10:00:00 7.6 13 Este 22 Nordeste 0 -- -- 95
2020-11-21 09:00:00 5.6 17 Nordeste 21 Este 0 -- -- 96
2020-11-21 08:00:00 6.2 14 Nordeste 21 Nordeste 0 -- -- 96
2020-11-21 07:00:00 5.7 14 Este 22 Este 0 -- -- 95
2020-11-21 06:00:00 6.4 15 Este 20 Este 0 -- -- 95
2020-11-21 05:00:00 6.8 12 Este 19 Este 0 -- -- 95
2020-11-21 04:00:00 7.2 12 Nordeste 19 Este 0 -- -- 94
2020-11-21 03:00:00 7.8 11 Nordeste 17 Este 0 -- -- 93
2020-11-21 02:00:00 8.4 10 Nordeste 16 Este 0 -- -- 91
2020-11-21 01:00:00 8.6 8 Nordeste 17 Este 0 -- -- 90
2020-11-21 00:00:00 9.2 11 Este 17 Este 0 -- -- 86
2020-11-20 23:00:00 9.9 9 Este 18 Este 0 -- -- 83
2020-11-20 22:00:00 10.9 0 Calma 20 Este 0 -- -- 77
2020-11-20 21:00:00 12.5 14 Este 25 Este 0 -- -- 69
2020-11-20 20:00:00 12.8 11 Este 22 Este 0 -- -- 68
2020-11-20 19:00:00 13.3 12 Este 24 Este 0 -- -- 66
2020-11-20 18:00:00 14.3 17 Este 30 Este 0 -- -- 61
2020-11-20 17:00:00 16 21 Este 31 Este 0 -- -- 54
2020-11-20 16:00:00 16.8 15 Este 30 Este 0 -- -- 52
2020-11-20 15:00:00 16.9 19 Este 35 Este 0 -- -- 52
2020-11-20 14:00:00 15.8 27 Este 40 Este 0 -- -- 56
2020-11-20 13:00:00 15.7 17 Este 30 Este 0 -- -- 62
2020-11-20 12:00:00 14.6 17 Este 27 Este 0 -- -- 64
2020-11-20 11:00:00 13.3 12 Este 29 Este 0 -- -- 69
2020-11-20 10:00:00 11.6 8 Este 20 Este 0 -- -- 75
2020-11-20 09:00:00 9.1 8 Este 26 Este 0 -- -- 83
2020-11-20 08:00:00 9.2 12 Este 31 Nordeste 0 -- -- 82
2020-11-20 07:00:00 9.4 12 Este 34 Nordeste 0 -- -- 81
2020-11-20 06:00:00 9.5 14 Este 32 Este 0 -- -- 82
2020-11-20 05:00:00 9.6 11 Este 28 Este 0 -- -- 80
2020-11-20 04:00:00 10.2 11 Este 33 Este 0 -- -- 80
2020-11-20 03:00:00 10.7 12 Este 32 Este 0 -- -- 80
2020-11-20 02:00:00 11.1 14 Este 30 Este 0 -- -- 80
2020-11-20 01:00:00 11.4 15 Este 35 Este 0 -- -- 80
2020-11-20 00:00:00 11.4 21 Este 36 Nordeste 0 -- -- 80
2020-11-19 23:00:00 11.2 14 Este 32 Este 0 -- -- 80
2020-11-19 22:00:00 11.7 17 Este 35 Este 0 -- -- 80
2020-11-19 21:00:00 11.5 14 Este 26 Este 0 -- -- 80
2020-11-19 20:00:00 12.3 11 Este 26 Sudeste 0 -- -- 78
2020-11-19 19:00:00 13.4 16 Este 36 Este 0 -- -- 77
2020-11-19 18:00:00 14.5 14 Este 31 Nordeste 0 -- -- 77
2020-11-19 17:00:00 15.6 13 Este 30 Este 0 -- -- 72
2020-11-19 16:00:00 17.7 13 Nordeste 27 Este 0 -- -- 66
2020-11-19 15:00:00 18.5 12 Este 26 Este 0 -- -- 64
2020-11-19 14:00:00 18.2 13 Este 27 Este 0 -- -- 65
2020-11-19 13:00:00 16.8 19 Este 36 Este 0 -- -- 68
2020-11-19 12:00:00 15.5 21 Este 36 Este 0 -- -- 72
2020-11-19 11:00:00 14.9 15 Este 37 Nordeste 0 -- -- 77
2020-11-19 10:00:00 13.7 17 Este 35 Nordeste 0 -- -- 80
2020-11-19 09:00:00 11.9 14 Este 31 Este 0 -- -- 90
2020-11-19 08:00:00 12.1 16 Este 32 Este 0 -- -- 90
2020-11-19 07:00:00 12.5 9 Este 31 Nordeste 0 -- -- 92
2020-11-19 06:00:00 13.2 13 Nordeste 29 Nordeste 0 -- -- 92
2020-11-19 05:00:00 13.7 12 Este 30 Nordeste 0 -- -- 93
2020-11-19 04:00:00 14.2 12 Nordeste 27 Este 0 -- -- 94
2020-11-19 03:00:00 13.9 10 Este 24 Este 0 -- -- 95
2020-11-19 02:00:00 14 13 Este 21 Este 0.1 -- -- 95
2020-11-19 01:00:00 13.9 10 Este 21 Este 0 -- -- 95
2020-11-19 00:00:00 14.3 3 Sudoeste 9 Sudoeste 0 -- -- 95
2020-11-18 23:00:00 14.8 2 Este 17 Este 0.3 -- -- 95
2020-11-18 22:00:00 15.2 0 Calma 6 Este 0 -- -- 95
2020-11-18 21:00:00 15.3 5 Este 23 Este 1.3 -- -- 95
2020-11-18 20:00:00 15.7 0 Calma 6 Noroeste 0.2 -- -- 93
2020-11-18 19:00:00 15.9 0 Calma 4 Este 0 -- -- 92
2020-11-18 18:00:00 16.3 0 Calma -- -- 0 -- -- 91
2020-11-18 17:00:00 16.9 0 Calma 6 Oeste 0 -- -- 90
2020-11-18 16:00:00 17.1 0 Calma 11 Oeste 0 -- -- 90
2020-11-18 15:00:00 17.3 4 Oeste 19 Sudoeste 0 -- -- 90
2020-11-18 14:00:00 16.9 5 Sudoeste 29 Sudoeste 0 -- -- 91
2020-11-18 13:00:00 16.6 11 Sudoeste 24 Sudoeste 0 -- -- 94
2020-11-18 12:00:00 16.4 5 Oeste 22 Sudoeste 0 -- -- 95
2020-11-18 11:00:00 16.4 6 Oeste 16 Oeste 0 -- -- 95
2020-11-18 10:00:00 15.6 5 Noroeste 30 Sudoeste 0 -- -- 95
2020-11-18 09:00:00 15.5 7 Sudoeste 26 Sur 0.3 -- -- 95
2020-11-18 08:00:00 15.5 5 Sudoeste 17 Sudoeste 0.4 -- -- 95
2020-11-18 07:00:00 15.4 7 Oeste 21 Sudoeste 0 -- -- 95
2020-11-18 06:00:00 15.5 7 Oeste 21 Sudoeste 0 -- -- 95
2020-11-18 05:00:00 15.3 6 Oeste 19 Sudoeste 1.1 -- -- 95
2020-11-18 04:00:00 15.3 8 Oeste 22 Sudoeste 0 -- -- 95
2020-11-18 03:00:00 15 6 Oeste 15 Oeste 0 -- -- 95
2020-11-18 02:00:00 14.7 4 Noroeste 9 Oeste 1.3 -- -- 94
2020-11-18 01:00:00 14.6 2 Noroeste 11 Oeste 0.7 -- -- 94
2020-11-18 00:00:00 14.8 5 Oeste 13 Oeste 0.5 -- -- 91
2020-11-17 23:00:00 15.1 6 Noroeste 12 Noroeste 0 -- -- 89
2020-11-17 22:00:00 14.7 5 Oeste 13 Oeste 0 -- -- 89
2020-11-17 21:00:00 14.6 3 Noroeste 20 Sudoeste 0 -- -- 89
2020-11-17 20:00:00 14.5 6 Sudoeste 17 Oeste 0 -- -- 90
2020-11-17 19:00:00 14.3 6 Oeste 19 Oeste 0 -- -- 89
2020-11-17 18:00:00 14.4 7 Oeste 19 Oeste 0 -- -- 86
2020-11-17 17:00:00 14.6 8 Oeste 21 Oeste 0 -- -- 78
2020-11-17 16:00:00 15.5 7 Oeste 23 Oeste 0 -- -- 72
2020-11-17 15:00:00 17.3 8 Oeste 15 Oeste 0 -- -- 68
2020-11-17 14:00:00 16.9 2 Oeste 9 Este 0 -- -- 69
2020-11-17 13:00:00 12.2 6 Este 15 Este 0 -- -- 86
2020-11-17 12:00:00 9.6 10 Este 21 Nordeste 0 -- -- 96
2020-11-17 11:00:00 6.9 13 Este 22 Este 0 -- -- 96
2020-11-17 10:00:00 6.2 14 Este 22 Este 0 -- -- 96
2020-11-17 09:00:00 5.6 11 Este 20 Este 0 -- -- 96
2020-11-17 08:00:00 5.8 10 Este 21 Este 0 -- -- 96
2020-11-17 07:00:00 6 13 Este 24 Este 0 -- -- 96
2020-11-17 06:00:00 6.3 17 Este 24 Este 0 -- -- 96
2020-11-17 05:00:00 6.7 14 Este 25 Este 0 -- -- 96
2020-11-17 04:00:00 7.1 15 Este 22 Este 0 -- -- 96
2020-11-17 03:00:00 7.5 13 Este 22 Este 0 -- -- 96
2020-11-17 02:00:00 7.5 13 Este 19 Este 0 -- -- 96
2020-11-17 01:00:00 7.9 11 Este 18 Este 0 -- -- 95
2020-11-17 00:00:00 8 12 Nordeste 17 Este 0 -- -- 95
2020-11-16 23:00:00 8.2 9 Este 15 Nordeste 0 -- -- 95
2020-11-16 22:00:00 8.4 9 Nordeste 13 Nordeste 0 -- -- 94
2020-11-16 21:00:00 8.7 6 Este 13 Este 0 -- -- 93
2020-11-16 20:00:00 9.6 8 Nordeste 12 Nordeste 0 -- -- 91
2020-11-16 19:00:00 10.4 8 Nordeste 12 Este 0 -- -- 88
2020-11-16 18:00:00 11.7 0 Calma 6 Nordeste 0 -- -- 76
2020-11-16 17:00:00 13.3 0 Calma 3 Nordeste 0 -- -- 75
2020-11-16 16:00:00 14.3 0 Calma 10 Este 0.1 -- -- 68
2020-11-16 15:00:00 14.3 6 Nordeste 12 Nordeste 0 -- -- 83
2020-11-16 14:00:00 12.3 8 Este 16 Este 0 -- -- 94
2020-11-16 13:00:00 11.2 11 Este 16 Este 0 -- -- 96
2020-11-16 12:00:00 9.5 10 Este 21 Este 0 -- -- 96
2020-11-16 11:00:00 8.8 16 Este 21 Este 0 -- -- 96
2020-11-16 10:00:00 8.5 8 Este 21 Este 0 -- -- 96
2020-11-16 09:00:00 8.5 8 Este 14 Este 0 -- -- 96
2020-11-16 08:00:00 8.7 4 Este 14 Este 0 -- -- 96
2020-11-16 07:00:00 8.6 5 Sudeste 14 Este 0 -- -- 96
2020-11-16 06:00:00 9 5 Este 11 Este 0 -- -- 96
2020-11-16 05:00:00 9.4 4 Este 17 Este 0.1 -- -- 95
2020-11-16 04:00:00 9.4 12 Nordeste 17 Nordeste 0 -- -- 95
2020-11-16 03:00:00 8.9 7 Este 11 Nordeste 0 -- -- 95
2020-11-16 02:00:00 9.2 5 Nordeste 8 Nordeste 0 -- -- 94
2020-11-16 01:00:00 9.8 2 Nordeste 7 Nordeste 0 -- -- 94
2020-11-16 00:00:00 10.9 0 Calma 5 Nordeste 0 -- -- 93
2020-11-15 23:00:00 11.7 3 Nordeste 7 Este 0 -- -- 93
2020-11-15 22:00:00 11.9 6 Nordeste 9 Nordeste 0 -- -- 92
2020-11-15 21:00:00 12.3 0 Calma 7 Nordeste 0 -- -- 91
2020-11-15 20:00:00 12.7 2 Sur 10 Noroeste 0 -- -- 90
2020-11-15 19:00:00 13.5 0 Calma 9 Sudoeste 0 -- -- 95
2020-11-15 18:00:00 14 0 Calma 10 Sudoeste 0 -- -- 95
2020-11-15 17:00:00 14.7 0 Calma 8 Sudoeste 0 -- -- 95
2020-11-15 16:00:00 14.3 0 Calma 13 Oeste 0.3 -- -- 95
2020-11-15 15:00:00 14.1 4 Oeste 13 Sudoeste 0.1 -- -- 95
2020-11-15 14:00:00 13.6 6 Oeste 13 Oeste 0.8 -- -- 95
2020-11-15 13:00:00 13.8 4 Oeste 14 Oeste 2.7 -- -- 95
2020-11-15 12:00:00 14.3 3 Oeste 38 Oeste 3.4 -- -- 95
2020-11-15 11:00:00 16 17 Oeste 41 Oeste 0.4 -- -- 95
2020-11-15 10:00:00 15.8 16 Oeste 37 Oeste 0 -- -- 95
2020-11-15 09:00:00 16 14 Oeste 49 Oeste 0 -- -- 95
2020-11-15 08:00:00 15.9 18 Oeste 39 Oeste 1 -- -- 95
2020-11-15 07:00:00 16.2 18 Oeste 46 Sudoeste 0.4 -- -- 95
2020-11-15 06:00:00 16.2 21 Oeste 46 Oeste 2 -- -- 95
2020-11-15 05:00:00 16.3 19 Oeste 50 Oeste 1.3 -- -- 95
2020-11-15 04:00:00 16.3 18 Oeste 47 Sudoeste 2.7 -- -- 95
2020-11-15 03:00:00 16.1 17 Oeste 40 Sudoeste 0.7 -- -- 95
2020-11-15 02:00:00 16 15 Oeste 39 Oeste 7.9 -- -- 95
2020-11-15 01:00:00 15.9 12 Oeste 34 Oeste 1.3 -- -- 95
2020-11-15 00:00:00 15.8 14 Oeste 30 Oeste 0.2 -- -- 95
2020-11-14 23:00:00 15.4 9 Oeste 23 Oeste 2.9 -- -- 95
2020-11-14 22:00:00 15 9 Oeste 25 Noroeste 0.8 -- -- 95
2020-11-14 21:00:00 14.7 10 Oeste 31 Oeste 0.5 -- -- 95
2020-11-14 20:00:00 14.3 11 Oeste 28 Oeste 0.1 -- -- 95
2020-11-14 19:00:00 14.2 12 Oeste 38 Oeste 0.5 -- -- 95
2020-11-14 18:00:00 15.8 11 Oeste 32 Oeste 0.1 -- -- 92
2020-11-14 17:00:00 16.1 13 Oeste 32 Oeste 0 -- -- 92
2020-11-14 16:00:00 15.9 13 Oeste 35 Oeste 0.1 -- -- 93
2020-11-14 15:00:00 16.4 7 Oeste 24 Sudoeste 0 -- -- 89
2020-11-14 14:00:00 16 8 Oeste 24 Sudoeste 0 -- -- 85
2020-11-14 13:00:00 15.9 9 Oeste 29 Sudoeste 0 -- -- 84
2020-11-14 12:00:00 16.5 10 Oeste 26 Oeste 0 -- -- 79
2020-11-14 11:00:00 15.2 5 Oeste 18 Oeste 0 -- -- 81
2020-11-14 10:00:00 14.6 7 Oeste 22 Sudoeste 0 -- -- 80
2020-11-14 09:00:00 14.2 7 Oeste 19 Oeste 0 -- -- 80
2020-11-14 08:00:00 13.5 7 Oeste 19 Oeste 0 -- -- 82
2020-11-14 07:00:00 13.6 8 Oeste 21 Sudoeste 0 -- -- 80
2020-11-14 06:00:00 13.7 8 Oeste 23 Sudoeste 0 -- -- 80
2020-11-14 05:00:00 13.9 7 Sudoeste 26 Sudoeste 0 -- -- 77
2020-11-14 04:00:00 13.8 5 Sudoeste 23 Sudoeste 0 -- -- 79
2020-11-14 03:00:00 14.1 6 Sudoeste 23 Sudoeste 0 -- -- 78
2020-11-14 02:00:00 13.6 9 Sudoeste 17 Sudoeste 0 -- -- 85
2020-11-14 01:00:00 12.7 4 Oeste 16 Sudoeste 0 -- -- 91
2020-11-14 00:00:00 12.1 0 Calma 8 Oeste 0 -- -- 92
2020-11-13 23:00:00 11.4 0 Calma 8 Este 0 -- -- 92
2020-11-13 22:00:00 11.3 0 Calma 7 Nordeste 0 -- -- 90
2020-11-13 21:00:00 11.9 0 Calma 5 Nordeste 0 -- -- 88
2020-11-13 20:00:00 12.7 0 Calma 5 Este 0 -- -- 85
2020-11-13 19:00:00 13.2 0 Calma 5 Oeste 0 -- -- 83
2020-11-13 18:00:00 13.9 0 Calma 7 Oeste 0 -- -- 80
2020-11-13 17:00:00 15.2 5 Oeste 13 Oeste 0 -- -- 73
2020-11-13 16:00:00 16.3 4 Noroeste 13 Oeste 0 -- -- 71
2020-11-13 15:00:00 17 4 Oeste 17 Oeste 0 -- -- 69
2020-11-13 14:00:00 18 6 Oeste 16 Oeste 0 -- -- 67
2020-11-13 13:00:00 17.1 5 Oeste 11 Oeste 0 -- -- 73
2020-11-13 12:00:00 13.4 5 Nordeste 15 Nordeste 0 -- -- 86
2020-11-13 11:00:00 10.8 10 Este 18 Este 0 -- -- 96
2020-11-13 10:00:00 8.7 10 Este 19 Nordeste 0 -- -- 96
2020-11-13 09:00:00 8.1 13 Nordeste 21 Nordeste 0 -- -- 96
2020-11-13 08:00:00 8.3 15 Nordeste 18 Nordeste 0 -- -- 96
2020-11-13 07:00:00 8.8 14 Nordeste 19 Nordeste 0 -- -- 96
2020-11-13 06:00:00 9.1 12 Nordeste 18 Nordeste 0 -- -- 96
2020-11-13 05:00:00 9.4 12 Nordeste 16 Nordeste 0 -- -- 95
2020-11-13 04:00:00 9.9 10 Nordeste 14 Nordeste 0 -- -- 95
2020-11-13 03:00:00 10.6 8 Nordeste 12 Nordeste 0 -- -- 95
2020-11-13 02:00:00 11.3 8 Nordeste 10 Nordeste 0 -- -- 94
2020-11-13 01:00:00 11.8 6 Nordeste 9 Nordeste 0 -- -- 92
2020-11-13 00:00:00 12 6 Nordeste 9 Nordeste 0 -- -- 92
2020-11-12 23:00:00 12.3 7 Nordeste 9 Nordeste 0 -- -- 91
2020-11-12 22:00:00 12.8 3 Nordeste 5 Nordeste 0 -- -- 88
2020-11-12 21:00:00 13.3 0 Calma 5 Nordeste 0 -- -- 85
2020-11-12 20:00:00 13.7 0 Calma 2 Noroeste 0 -- -- 84
2020-11-12 19:00:00 13.7 0 Calma 6 Noroeste 0 -- -- 83
2020-11-12 18:00:00 14 2 Oeste 10 Sudoeste 0 -- -- 81
2020-11-12 17:00:00 15.7 2 Oeste 17 Oeste 0 -- -- 72
2020-11-12 16:00:00 18.7 4 Oeste 17 Oeste 0 -- -- 62
2020-11-12 15:00:00 18.7 5 Oeste 19 Oeste 0 -- -- 61
2020-11-12 14:00:00 17.5 5 Oeste 16 Oeste 0 -- -- 65
2020-11-12 13:00:00 18.1 8 Oeste 21 Sudoeste 0 -- -- 64
2020-11-12 12:00:00 16.9 3 Oeste 17 Oeste 0 -- -- 72
2020-11-12 11:00:00 15.1 6 Oeste 13 Oeste 0 -- -- 80
2020-11-12 10:00:00 13.4 4 Noroeste 7 Oeste 0 -- -- 88
2020-11-12 09:00:00 11.7 0 Calma 10 Noroeste 0 -- -- 91
2020-11-12 08:00:00 11.6 3 Noroeste 10 Oeste 0 -- -- 92
2020-11-12 07:00:00 11.7 6 Noroeste 13 Oeste 0 -- -- 94
2020-11-12 06:00:00 11.7 4 Noroeste 11 Oeste 0 -- -- 94
2020-11-12 05:00:00 12.1 4 Noroeste 10 Sudoeste 0.1 -- -- 94
2020-11-12 04:00:00 12.3 4 Oeste 14 Noroeste 0 -- -- 94
2020-11-12 03:00:00 12.4 8 Oeste 17 Noroeste 0.2 -- -- 94
2020-11-12 02:00:00 12.5 7 Oeste 13 Oeste 0.5 -- -- 94
2020-11-12 01:00:00 12.5 5 Oeste 24 Sudoeste 0.7 -- -- 94
2020-11-12 00:00:00 12.5 6 Oeste 24 Sudoeste 0.4 -- -- 93
2020-11-11 23:00:00 12.6 7 Oeste 20 Oeste 0 -- -- 93
2020-11-11 22:00:00 12.7 8 Sudoeste 22 Oeste 0.3 -- -- 93
2020-11-11 21:00:00 12.6 6 Oeste 23 Sudoeste 0.2 -- -- 91
2020-11-11 20:00:00 12.3 6 Oeste 18 Oeste 0.2 -- -- 89
2020-11-11 19:00:00 13 9 Oeste 33 Sudoeste 0 -- -- 77
2020-11-11 18:00:00 14 11 Oeste 38 Oeste 0 -- -- 72
2020-11-11 17:00:00 14.7 11 Oeste 23 Oeste 0 -- -- 75
2020-11-11 16:00:00 15.2 12 Oeste 24 Oeste 0 -- -- 70
2020-11-11 15:00:00 15.1 12 Oeste 31 Oeste 0 -- -- 69
2020-11-11 14:00:00 15.6 11 Oeste 34 Sudoeste 0 -- -- 66
2020-11-11 13:00:00 15.1 10 Oeste 24 Oeste 0 -- -- 72
2020-11-11 12:00:00 14 9 Oeste 23 Sudoeste 0 -- -- 77
2020-11-11 11:00:00 12.4 7 Oeste 18 Sudoeste 0 -- -- 85
2020-11-11 10:00:00 10.3 5 Noroeste 13 Oeste 0 -- -- 95
2020-11-11 09:00:00 7.5 0 Calma 12 Nordeste 0 -- -- 96
2020-11-11 08:00:00 7 9 Nordeste 14 Nordeste 0 -- -- 96
2020-11-11 07:00:00 7.2 10 Nordeste 16 Nordeste 0 -- -- 96
2020-11-11 06:00:00 7 10 Nordeste 14 Nordeste 0 -- -- 96
2020-11-11 05:00:00 7.4 9 Este 18 Este 0 -- -- 95
2020-11-11 04:00:00 7.1 13 Nordeste 18 Nordeste 0 -- -- 95
2020-11-11 03:00:00 7.3 14 Nordeste 19 Nordeste 0 -- -- 95
2020-11-11 02:00:00 7.7 13 Nordeste 17 Este 0 -- -- 95
2020-11-11 01:00:00 8 11 Este 15 Este 0 -- -- 95
2020-11-11 00:00:00 8.7 11 Nordeste 14 Este 0 -- -- 95
2020-11-10 23:00:00 9.3 10 Nordeste 14 Este 0 -- -- 94
2020-11-10 22:00:00 9.9 11 Este 17 Este 0 -- -- 93
2020-11-10 21:00:00 10.1 9 Nordeste 14 Nordeste 0 -- -- 90
2020-11-10 20:00:00 11.3 0 Calma -- -- 0 -- -- 85
2020-11-10 19:00:00 12.2 0 Calma -- -- 0 -- -- 78
2020-11-10 18:00:00 13.8 0 Calma -- -- 0 -- -- 75
2020-11-10 17:00:00 16.2 0 Calma 0 Calma 0 -- -- 65
2020-11-10 16:00:00 17.7 0 Calma -- -- 0 -- -- 59
2020-11-10 15:00:00 17.1 0 Calma -- -- 0 -- -- 57
2020-11-10 14:00:00 16.9 0 Calma 18 Este 0 -- -- 60
2020-11-10 13:00:00 16.1 11 Este 18 Este 0 -- -- 66
2020-11-10 12:00:00 14.9 8 Este 16 Este 0 -- -- 73
2020-11-10 11:00:00 12.6 12 Este 16 Este 0 -- -- 81
2020-11-10 10:00:00 11.7 11 Este 17 Este 0 -- -- 91
2020-11-10 09:00:00 9.5 10 Este 20 Este 0 -- -- 94
2020-11-10 08:00:00 9.7 14 Este 20 Este 0 -- -- 94
2020-11-10 07:00:00 9.9 13 Nordeste 18 Nordeste 0 -- -- 94
2020-11-10 06:00:00 9.8 10 Nordeste 14 Nordeste 0 -- -- 94
2020-11-10 05:00:00 9.9 11 Nordeste 17 Este 0 -- -- 94
2020-11-10 04:00:00 9.8 12 Nordeste 17 Nordeste 0 -- -- 94
2020-11-10 03:00:00 10.1 9 Nordeste 14 Nordeste 0 -- -- 94
2020-11-10 02:00:00 10 8 Nordeste 13 Este 0 -- -- 94
2020-11-10 01:00:00 10 8 Este 14 Este 0 -- -- 94
2020-11-10 00:00:00 10 9 Nordeste 15 Nordeste 0 -- -- 94
2020-11-09 23:00:00 10.3 7 Nordeste 13 Nordeste 0 -- -- 93
2020-11-09 22:00:00 10.4 8 Nordeste 12 Nordeste 0 -- -- 93
2020-11-09 21:00:00 10.4 4 Nordeste 9 Este 0 -- -- 88
2020-11-09 20:00:00 11.7 0 Calma 4 Sur 0 -- -- 86
2020-11-09 19:00:00 12.1 0 Calma 7 Sudoeste 0 -- -- 85
2020-11-09 18:00:00 13.3 3 Oeste 15 Oeste 0 -- -- 83
2020-11-09 17:00:00 14.8 6 Oeste 21 Oeste 0 -- -- 77
2020-11-09 16:00:00 15.3 8 Oeste 19 Oeste 0 -- -- 75
2020-11-09 15:00:00 17.1 5 Oeste 18 Noroeste 0.1 -- -- 81
2020-11-09 14:00:00 16.6 7 Oeste 19 Oeste 0 -- -- 78
2020-11-09 13:00:00 16.3 5 Oeste 17 Sudoeste 0.8 -- -- 90
2020-11-09 12:00:00 16.8 8 Oeste 20 Oeste 1 -- -- 89
2020-11-09 11:00:00 15.4 6 Oeste 14 Oeste 0.8 -- -- 95
2020-11-09 10:00:00 13.7 5 Oeste 13 Sudoeste 0.1 -- -- 95
2020-11-09 09:00:00 13.3 4 Oeste 12 Oeste 0 -- -- 95
2020-11-09 08:00:00 13.2 4 Oeste 10 Noroeste 0 -- -- 95
2020-11-09 07:00:00 13.4 4 Oeste 11 Noroeste 0 -- -- 95
2020-11-09 06:00:00 13.6 6 Oeste 27 Sudoeste 2.8 -- -- 95
2020-11-09 05:00:00 13.6 9 Oeste 20 Oeste 0.4 -- -- 95
2020-11-09 04:00:00 13.4 9 Oeste 24 Sudoeste 5.2 -- -- 95
2020-11-09 03:00:00 13.1 6 Oeste 23 Oeste 3.9 -- -- 95
2020-11-09 02:00:00 13.8 11 Oeste 37 Oeste 4.2 -- -- 95
2020-11-09 01:00:00 14 9 Oeste 27 Oeste 0.2 -- -- 94
2020-11-09 00:00:00 13.8 10 Oeste 23 Sudoeste 0.3 -- -- 94
2020-11-08 23:00:00 13.8 8 Oeste 23 Oeste 0 -- -- 94
2020-11-08 22:00:00 13.6 7 Oeste 23 Sudoeste 1.1 -- -- 94
2020-11-08 21:00:00 13.7 8 Oeste 23 Sudoeste 0.7 -- -- 93
2020-11-08 20:00:00 14 8 Oeste 23 Oeste 0.1 -- -- 91
2020-11-08 19:00:00 14 8 Oeste 35 Oeste 0 -- -- 92
2020-11-08 18:00:00 14.1 11 Oeste 40 Oeste 0 -- -- 92
2020-11-08 17:00:00 14.4 12 Oeste 30 Oeste 0.6 -- -- 91
2020-11-08 16:00:00 15.2 13 Oeste 34 Oeste 0.1 -- -- 83
2020-11-08 15:00:00 16 14 Oeste 42 Sudoeste 0 -- -- 82
2020-11-08 14:00:00 16.1 10 Oeste 31 Sudoeste 0.2 -- -- 88
2020-11-08 13:00:00 16 13 Oeste 32 Oeste 0 -- -- 80
2020-11-08 12:00:00 15.6 9 Oeste 22 Oeste 0 -- -- 91
2020-11-08 11:00:00 14.6 10 Oeste 28 Sudoeste 0 -- -- 93
2020-11-08 10:00:00 14.3 12 Oeste 37 Oeste 0.3 -- -- 93
2020-11-08 09:00:00 13.7 10 Sudoeste 27 Sudoeste 0.4 -- -- 90
2020-11-08 08:00:00 13 4 Oeste 28 Sur 0 -- -- 92
2020-11-08 07:00:00 13 4 Este 35 Oeste 4.6 -- -- 92
2020-11-08 06:00:00 13.5 12 Oeste 35 Oeste 10.4 -- -- 93
2020-11-08 05:00:00 14.8 9 Sudoeste 31 Sudoeste 0.5 -- -- 86
2020-11-08 04:00:00 15 8 Sudoeste 23 Sur 0 -- -- 85
2020-11-08 03:00:00 14.4 5 Sudoeste 18 Sur 0.2 -- -- 90
2020-11-08 02:00:00 14.5 5 Sudoeste 16 Sudoeste 0.1 -- -- 90
2020-11-08 01:00:00 14.6 7 Sudoeste 17 Sudoeste 0 -- -- 89
2020-11-08 00:00:00 14.1 3 Oeste 19 Sudoeste 0 -- -- 94
2020-11-07 23:00:00 14.2 5 Oeste 19 Sudoeste 0 -- -- 94
2020-11-07 22:00:00 14.3 6 Oeste 19 Sudoeste 0.1 -- -- 94
2020-11-07 21:00:00 14.3 6 Oeste 20 Sur 0.6 -- -- 94
2020-11-07 20:00:00 14.5 6 Oeste 26 Oeste 0 -- -- 94
2020-11-07 19:00:00 14.6 8 Sudoeste 23 Sudoeste 0.6 -- -- 94
2020-11-07 18:00:00 14.6 9 Oeste 19 Sudoeste 0.7 -- -- 94
2020-11-07 17:00:00 13.5 4 Noroeste 26 Oeste 9.2 -- -- 94
2020-11-07 16:00:00 14.7 8 Oeste 24 Oeste 2.3 -- -- 93
2020-11-07 15:00:00 14.9 8 Sudoeste 33 Sudoeste 0.4 -- -- 90
2020-11-07 14:00:00 14.7 11 Sudoeste 28 Sudoeste 0.1 -- -- 89
2020-11-07 13:00:00 14.8 7 Sudoeste 23 Sudoeste 0.5 -- -- 90
2020-11-07 12:00:00 13.9 7 Sudoeste 30 Sudoeste 0.5 -- -- 86
2020-11-07 11:00:00 14.3 10 Sudoeste 27 Sur 0 -- -- 78
2020-11-07 10:00:00 14.2 4 Oeste 16 Sudoeste 0 -- -- 80
2020-11-07 09:00:00 12.9 4 Oeste 20 Sudoeste 0 -- -- 83
2020-11-07 08:00:00 12.9 9 Sudoeste 22 Sudoeste 0 -- -- 82
2020-11-07 07:00:00 13 7 Sudoeste 18 Sudoeste 0 -- -- 83
2020-11-07 06:00:00 12.4 4 Sur 14 Sudoeste 0 -- -- 86
2020-11-07 05:00:00 12.5 4 Sudoeste 13 Sudeste 0 -- -- 87
2020-11-07 04:00:00 12.3 3 Sudoeste 12 Nordeste 0 -- -- 93
2020-11-07 03:00:00 11.5 8 Nordeste 13 Este 0 -- -- 93
2020-11-07 02:00:00 12 7 Nordeste 9 Nordeste 0 -- -- 91
2020-11-07 01:00:00 12.3 5 Nordeste 12 Sudoeste 0 -- -- 89
2020-11-07 00:00:00 13 2 Este 10 Este 0 -- -- 88
2020-11-06 23:00:00 13.2 3 Sudeste 12 Este 0 -- -- 91
2020-11-06 22:00:00 12.5 5 Este 11 Nordeste 0.1 -- -- 93
2020-11-06 21:00:00 13 0 Calma 6 Oeste 0 -- -- 93
2020-11-06 20:00:00 13 0 Calma 12 Oeste 0.1 -- -- 94
2020-11-06 19:00:00 13.1 0 Calma 9 Este 0.9 -- -- 93
2020-11-06 18:00:00 13.4 0 Calma 18 Este 0.3 -- -- 92
2020-11-06 17:00:00 13.4 11 Este 16 Este 0 -- -- 92
2020-11-06 16:00:00 13.4 8 Este 21 Oeste 2.1 -- -- 92
2020-11-06 15:00:00 13.1 9 Oeste 21 Sur 2.5 -- -- 91
2020-11-06 14:00:00 14.5 9 Sur 24 Sur 0.6 -- -- 82
2020-11-06 13:00:00 15.4 8 Sur 18 Sudoeste 0.1 -- -- 73
2020-11-06 12:00:00 15.6 8 Sur 40 Sudeste 0.2 -- -- 66
2020-11-06 11:00:00 17.2 14 Sudeste 39 Sudeste 0 -- -- 57
2020-11-06 10:00:00 15.3 25 Este 41 Sudeste 0 -- -- 64
2020-11-06 09:00:00 13.2 15 Este 39 Este 0 -- -- 71
2020-11-06 08:00:00 13.9 9 Este 27 Este 0 -- -- 69
2020-11-06 07:00:00 13.8 17 Este 41 Este 0 -- -- 69
2020-11-06 06:00:00 13.8 22 Este 33 Sudeste 0 -- -- 70
2020-11-06 05:00:00 14.5 25 Este 35 Este 0 -- -- 66
2020-11-06 04:00:00 13.4 19 Este 30 Este 0 -- -- 74
2020-11-06 03:00:00 15 14 Este 31 Sudeste 0 -- -- 66
2020-11-06 02:00:00 15.3 15 Este 30 Este 0 -- -- 64
2020-11-06 01:00:00 15.5 10 Este 38 Sudeste 0 -- -- 63
2020-11-06 00:00:00 13.9 20 Este 35 Este 0 -- -- 73
2020-11-05 23:00:00 14.7 14 Este 25 Este 0 -- -- 69
2020-11-05 22:00:00 11.6 16 Este 21 Este 0 -- -- 83
2020-11-05 21:00:00 12.7 5 Este 12 Este 0 -- -- 74
2020-11-05 20:00:00 13 6 Este 17 Este 0 -- -- 72
2020-11-05 19:00:00 13.4 13 Este 29 Este 0 -- -- 72
2020-11-05 18:00:00 14.1 8 Este 15 Sudeste 0 -- -- 67
2020-11-05 17:00:00 15 0 Calma 27 Este 0 -- -- 64
2020-11-05 16:00:00 15.9 10 Este 30 Este 0 -- -- 58
2020-11-05 15:00:00 14.2 18 Este 37 Este 0 -- -- 60
2020-11-05 14:00:00 14.5 13 Este 44 Este 0 -- -- 58
2020-11-05 13:00:00 14.2 33 Este 42 Este 0 -- -- 59
2020-11-05 12:00:00 11.8 30 Este 51 Este 0 -- -- 63
2020-11-05 11:00:00 11.1 28 Este 42 Este 0 -- -- 64
2020-11-05 10:00:00 10.2 17 Este 28 Este 0 -- -- 67
2020-11-05 09:00:00 9.5 6 Este 29 Nordeste 0 -- -- 66
2020-11-05 08:00:00 10 17 Nordeste 31 Nordeste 0 -- -- 64
2020-11-05 07:00:00 8.5 0 Calma 20 Nordeste 0 -- -- 67
2020-11-05 06:00:00 9.2 5 Este 24 Nordeste 0 -- -- 64
2020-11-05 05:00:00 9.2 5 Este 28 Nordeste 0 -- -- 62
2020-11-05 04:00:00 10.1 16 Este 31 Nordeste 0 -- -- 58
2020-11-05 03:00:00 10 12 Este 32 Nordeste 0 -- -- 58
2020-11-05 02:00:00 10.1 12 Este 32 Este 0 -- -- 58
2020-11-05 01:00:00 10.1 15 Este 36 Este 0 -- -- 57
2020-11-05 00:00:00 10.6 21 Este 42 Este 0 -- -- 55
2020-11-04 23:00:00 10.9 30 Este 54 Este 0 -- -- 53
2020-11-04 22:00:00 10.3 22 Este 38 Este 0 -- -- 56
2020-11-04 21:00:00 10.3 15 Este 47 Este 0 -- -- 58
2020-11-04 20:00:00 10.6 22 Este 43 Este 0 -- -- 57
2020-11-04 19:00:00 10.5 13 Este 34 Este 0 -- -- 58
2020-11-04 18:00:00 11.3 18 Este 42 Nordeste 0 -- -- 55
2020-11-04 17:00:00 12.1 23 Este 45 Nordeste 0 -- -- 52
2020-11-04 16:00:00 13.2 18 Este 41 Este 0 -- -- 49
2020-11-04 15:00:00 13.4 14 Este 38 Este 0 -- -- 55
2020-11-04 14:00:00 12.9 21 Este 35 Este 0 -- -- 52
2020-11-04 13:00:00 11.5 19 Sudeste 27 Sudeste 0 -- -- 65
2020-11-04 12:00:00 8.7 8 Nordeste 15 Nordeste 0 -- -- 84
2020-11-04 11:00:00 7.3 10 Este 18 Este 0 -- -- 84
2020-11-04 10:00:00 5.9 12 Este 17 Nordeste 0 -- -- 96
2020-11-04 09:00:00 3.3 12 Este 19 Este 0 -- -- 96
2020-11-04 08:00:00 3.1 13 Este 22 Nordeste 0 -- -- 95
2020-11-04 07:00:00 3.1 13 Este 18 Nordeste 0 -- -- 95
2020-11-04 06:00:00 3.4 13 Nordeste 18 Este 0 -- -- 95
2020-11-04 05:00:00 4.4 12 Nordeste 17 Nordeste 0 -- -- 94
2020-11-04 04:00:00 4.5 12 Nordeste 16 Nordeste 0 -- -- 94
2020-11-04 03:00:00 4.6 12 Este 17 Este 0 -- -- 93
2020-11-04 02:00:00 5.4 8 Este 12 Nordeste 0 -- -- 91
2020-11-04 01:00:00 5.7 8 Este 12 Nordeste 0 -- -- 89
2020-11-04 00:00:00 6.4 7 Nordeste 11 Nordeste 0 -- -- 86
2020-11-03 23:00:00 7.3 5 Nordeste 12 Este 0 -- -- 81
2020-11-03 22:00:00 7.4 5 Este 15 Nordeste 0 -- -- 78
2020-11-03 21:00:00 9 7 Este 28 Norte 0 -- -- 68
2020-11-03 20:00:00 9.4 12 Nordeste 26 Nordeste 0 -- -- 67
2020-11-03 19:00:00 9.7 11 Nordeste 24 Nordeste 0 -- -- 63
2020-11-03 18:00:00 10.5 13 Nordeste 24 Nordeste 0 -- -- 60
2020-11-03 17:00:00 11.8 11 Nordeste 25 Nordeste 0 -- -- 58
2020-11-03 16:00:00 13.6 10 Nordeste 31 Este 0 -- -- 53
2020-11-03 15:00:00 13.5 13 Nordeste 30 Este 0 -- -- 54
2020-11-03 14:00:00 14.2 13 Este 36 Este 0 -- -- 52
2020-11-03 13:00:00 13.9 13 Este 37 Nordeste 0 -- -- 55
2020-11-03 12:00:00 13.2 12 Este 31 Este 0 -- -- 58
2020-11-03 11:00:00 13 0 Calma 2 Este 0 -- -- 66
2020-11-03 10:00:00 9.2 0 Calma -- -- 0 -- -- 95
2020-11-03 09:00:00 7.8 0 Calma -- -- 0 -- -- 95
2020-11-03 08:00:00 8 0 Calma -- -- 0 -- -- 95
2020-11-03 07:00:00 8 0 Calma -- -- 0 -- -- 95
2020-11-03 06:00:00 8.1 0 Calma -- -- 0 -- -- 95
2020-11-03 05:00:00 8.1 0 Calma 0 Calma 0 -- -- 95
2020-11-03 04:00:00 8.2 0 Calma 0 Calma 0 -- -- 95
2020-11-03 03:00:00 8 0 Calma 0 Calma 0 -- -- 95
2020-11-03 02:00:00 8.1 0 Calma 0 Calma 0 -- -- 95
2020-11-03 01:00:00 7.8 0 Calma 0 Calma 0 -- -- 95
2020-11-03 00:00:00 7.9 0 Calma -- -- 0 -- -- 94
2020-11-02 23:00:00 8.7 0 Calma -- -- 0 -- -- 94
2020-11-02 22:00:00 9.4 0 Calma -- -- 0 -- -- 92
2020-11-02 21:00:00 10.2 0 Calma -- -- 0 -- -- 89
2020-11-02 20:00:00 11.5 0 Calma -- -- 0 -- -- 83
2020-11-02 19:00:00 12.5 0 Calma -- -- 0 -- -- 82
2020-11-02 18:00:00 14.2 0 Calma -- -- 0 -- -- 78
2020-11-02 17:00:00 14.9 0 Calma -- -- 0 -- -- 82
2020-11-02 16:00:00 15.4 0 Calma 0 Calma 0 -- -- 79
2020-11-02 15:00:00 14.9 0 Calma 12 Este 0 -- -- 86
2020-11-02 14:00:00 14.7 5 Este 11 Este 0 -- -- 88
2020-11-02 13:00:00 14.4 4 Este 9 Este 0 -- -- 88
2020-11-02 12:00:00 13.9 0 Calma 19 Norte 0 -- -- 90
2020-11-02 11:00:00 14.1 0 Calma 22 Norte 0.3 -- -- 95
2020-11-02 10:00:00 16.4 0 Calma 28 Oeste 1.2 -- -- 95
2020-11-02 09:00:00 16.9 10 Oeste 35 Sudoeste 3 -- -- 95
2020-11-02 08:00:00 16.9 11 Oeste 28 Oeste 0 -- -- 95
2020-11-02 07:00:00 17 10 Oeste 30 Oeste 0.4 -- -- 95
2020-11-02 06:00:00 17 13 Oeste 39 Oeste 1 -- -- 95
2020-11-02 05:00:00 17.1 11 Oeste 31 Oeste 0.1 -- -- 95
2020-11-02 04:00:00 17 12 Oeste 36 Noroeste 0.7 -- -- 95
2020-11-02 03:00:00 17 12 Oeste 31 Oeste 0.3 -- -- 95
2020-11-02 02:00:00 17 12 Oeste 37 Sudoeste 0.3 -- -- 95
2020-11-02 01:00:00 17 11 Oeste 34 Oeste 0 -- -- 95
2020-11-02 00:00:00 17.1 14 Oeste 32 Oeste 0.2 -- -- 95
2020-11-01 23:00:00 16.9 13 Oeste 37 Oeste 0.3 -- -- 95
2020-11-01 22:00:00 17 14 Oeste 33 Sudoeste 0.2 -- -- 95
2020-11-01 21:00:00 16.7 12 Oeste 30 Oeste 0.4 -- -- 95
2020-11-01 20:00:00 16.8 12 Oeste 34 Noroeste 0.1 -- -- 95
2020-11-01 19:00:00 16.7 10 Oeste 30 Oeste 0.1 -- -- 95
2020-11-01 18:00:00 17 14 Oeste 37 Oeste 0.6 -- -- 95
2020-11-01 17:00:00 17.3 15 Oeste 35 Oeste 0.7 -- -- 95
2020-11-01 16:00:00 17.3 13 Oeste 33 Oeste 0.2 -- -- 95
2020-11-01 15:00:00 17.5 11 Oeste 28 Sudoeste 0.9 -- -- 95
2020-11-01 14:00:00 17.4 10 Oeste 22 Oeste 1 -- -- 95
2020-11-01 13:00:00 17.2 11 Oeste 24 Oeste 0.8 -- -- 95
2020-11-01 12:00:00 17 9 Oeste 22 Sudoeste 0.5 -- -- 95
2020-11-01 11:00:00 16.8 7 Oeste 23 Oeste 0.6 -- -- 95
2020-11-01 10:00:00 16.7 9 Oeste 24 Sudoeste 0.6 -- -- 95
2020-11-01 09:00:00 16.5 9 Oeste 31 Sudoeste 0.3 -- -- 95
2020-11-01 08:00:00 16.3 7 Oeste 30 Sudoeste 1 -- -- 95
2020-11-01 07:00:00 16.2 9 Oeste 27 Oeste 0.8 -- -- 95
2020-11-01 06:00:00 16.2 7 Oeste 31 Sudoeste 1.1 -- -- 95
2020-11-01 05:00:00 16.2 8 Oeste 24 Oeste 0.4 -- -- 95
2020-11-01 04:00:00 16.2 10 Oeste 31 Sudoeste 0.2 -- -- 95
2020-11-01 03:00:00 16.1 8 Oeste 25 Sudoeste 0.2 -- -- 96
2020-11-01 02:00:00 16 9 Oeste 26 Oeste 1.8 -- -- 95
2020-11-01 01:00:00 16.1 9 Oeste 27 Oeste 0.6 -- -- 95
2020-11-01 00:00:00 16.3 11 Oeste 28 Sudoeste 0 -- -- 95
2020-10-31 23:00:00 16.4 11 Oeste 36 Sur 0.1 -- -- 95
2020-10-31 22:00:00 16.4 11 Sudoeste 32 Oeste 0.1 -- -- 95
2020-10-31 21:00:00 16.5 12 Oeste 30 Sudoeste 0.1 -- -- 95
2020-10-31 20:00:00 16.5 10 Oeste 32 Noroeste 0.7 -- -- 95
2020-10-31 19:00:00 16.7 10 Oeste 27 Oeste 0.1 -- -- 94
2020-10-31 18:00:00 16.7 11 Oeste 30 Oeste 0 -- -- 94
2020-10-31 17:00:00 16.7 12 Oeste 30 Oeste 0 -- -- 94
2020-10-31 16:00:00 16.7 12 Oeste 35 Oeste 0.1 -- -- 94
2020-10-31 15:00:00 16.9 14 Oeste 34 Oeste 0 -- -- 94
2020-10-31 14:00:00 16.8 12 Oeste 31 Oeste 0 -- -- 94
2020-10-31 13:00:00 16.5 13 Oeste 35 Sudoeste 0 -- -- 94
2020-10-31 12:00:00 16.5 13 Oeste 28 Sudoeste 0 -- -- 94
2020-10-31 11:00:00 15.9 10 Oeste 27 Sudoeste 0.3 -- -- 94
2020-10-31 10:00:00 15.7 8 Oeste 31 Sudoeste 0.1 -- -- 93
2020-10-31 09:00:00 15.6 9 Oeste 26 Sudoeste 0 -- -- 94
2020-10-31 08:00:00 15.3 10 Oeste 27 Sudoeste 0 -- -- 93
2020-10-31 07:00:00 15.2 8 Sudoeste 24 Sudoeste 0 -- -- 93
2020-10-31 06:00:00 15.2 8 Oeste 26 Sudoeste 0 -- -- 93
2020-10-31 05:00:00 14.7 6 Oeste 20 Sudoeste 0.1 -- -- 93
2020-10-31 04:00:00 14.8 6 Oeste 22 Oeste 0 -- -- 92
2020-10-31 03:00:00 14.5 8 Oeste 25 Oeste 0 -- -- 92
2020-10-31 02:00:00 14.6 6 Oeste 22 Sudoeste 0 -- -- 91
2020-10-31 01:00:00 14.6 5 Oeste 17 Oeste 0 -- -- 88
2020-10-31 00:00:00 14.3 6 Oeste 13 Noroeste 0 -- -- 89
2020-10-30 23:00:00 14.2 3 Noroeste 14 Oeste 0 -- -- 89
2020-10-30 22:00:00 13.8 5 Oeste 10 Oeste 0 -- -- 89
2020-10-30 21:00:00 13.6 0 Calma 8 Oeste 0 -- -- 88
2020-10-30 20:00:00 14.1 2 Oeste 9 Noroeste 0 -- -- 85
2020-10-30 19:00:00 14.6 4 Noroeste 14 Oeste 0 -- -- 83
2020-10-30 18:00:00 15.2 6 Oeste 14 Noroeste 0 -- -- 80
2020-10-30 17:00:00 16.6 4 Oeste 13 Oeste 0 -- -- 76
2020-10-30 16:00:00 17.3 3 Oeste 12 Sudoeste 0 -- -- 72
2020-10-30 15:00:00 17.8 5 Oeste 13 Oeste 0 -- -- 70
2020-10-30 14:00:00 19 3 Oeste 10 Oeste 0 -- -- 65
2020-10-30 13:00:00 17.5 4 Oeste 9 Oeste 0 -- -- 71
2020-10-30 12:00:00 15.7 0 Calma 10 Nordeste 0 -- -- 82
2020-10-30 11:00:00 10.5 8 Este 14 Nordeste 0 -- -- 96
2020-10-30 10:00:00 8.9 7 Nordeste 15 Nordeste 0 -- -- 96
2020-10-30 09:00:00 7.5 6 Nordeste 14 Nordeste 0 -- -- 96
2020-10-30 08:00:00 7.5 9 Este 16 Este 0 -- -- 95
2020-10-30 07:00:00 7.7 12 Este 15 Este 0 -- -- 95
2020-10-30 06:00:00 8.5 8 Nordeste 14 Este 0 -- -- 95
2020-10-30 05:00:00 8.5 8 Este 13 Nordeste 0 -- -- 94
2020-10-30 04:00:00 9.3 10 Este 13 Este 0 -- -- 94
2020-10-30 03:00:00 9.2 10 Este 14 Nordeste 0 -- -- 94
2020-10-30 02:00:00 9.4 9 Nordeste 17 Nordeste 0 -- -- 94
2020-10-30 01:00:00 9.4 11 Nordeste 16 Este 0 -- -- 94
2020-10-30 00:00:00 9.4 11 Nordeste 14 Este 0 -- -- 94
2020-10-29 23:00:00 9.5 9 Nordeste 13 Este 0 -- -- 94
2020-10-29 22:00:00 9.5 9 Nordeste 13 Nordeste 0 -- -- 92
2020-10-29 21:00:00 10 8 Nordeste 9 Nordeste 0 -- -- 89
2020-10-29 20:00:00 11.1 5 Nordeste 7 Nordeste 0 -- -- 84
2020-10-29 19:00:00 12.5 0 Calma 8 Sudoeste 0 -- -- 80
2020-10-29 18:00:00 13.8 4 Oeste 13 Oeste 0 -- -- 75
2020-10-29 17:00:00 15.3 2 Oeste 12 Oeste 0 -- -- 66
2020-10-29 16:00:00 16.4 4 Oeste 17 Noroeste 0 -- -- 64
2020-10-29 15:00:00 16.5 4 Oeste 15 Noroeste 0 -- -- 63
2020-10-29 14:00:00 16 0 Calma 13 Noroeste 0 -- -- 69
2020-10-29 13:00:00 15.4 0 Calma 11 Sudoeste 0 -- -- 77
2020-10-29 12:00:00 15.6 0 Calma 6 Noroeste 0 -- -- 75
2020-10-29 11:00:00 15.2 0 Calma 7 Sudeste 0 -- -- 75
2020-10-29 10:00:00 14 4 Nordeste 9 Nordeste 0 -- -- 91
2020-10-29 09:00:00 11.3 3 Nordeste 10 Nordeste 0 -- -- 94
2020-10-29 08:00:00 11.4 7 Nordeste 10 Nordeste 0 -- -- 94
2020-10-29 07:00:00 11.6 8 Nordeste 12 Nordeste 0 -- -- 94
2020-10-29 06:00:00 11.7 7 Nordeste 11 Nordeste 0 -- -- 94
2020-10-29 05:00:00 11.7 6 Nordeste 10 Nordeste 0 -- -- 94
2020-10-29 04:00:00 11.7 6 Nordeste 11 Nordeste 0 -- -- 94
2020-10-29 03:00:00 11.7 9 Nordeste 12 Nordeste 0 -- -- 94
2020-10-29 02:00:00 11.9 6 Nordeste 8 Nordeste 0 -- -- 94
2020-10-29 01:00:00 11.9 5 Nordeste 6 Nordeste 0 -- -- 93
2020-10-29 00:00:00 12.1 0 Calma 6 Nordeste 0.1 -- -- 93
2020-10-28 23:00:00 12.1 3 Nordeste 5 Nordeste 0 -- -- 93
2020-10-28 22:00:00 12.3 0 Calma 5 Oeste 0 -- -- 91
2020-10-28 21:00:00 11.9 0 Calma 5 Oeste 0 -- -- 89
2020-10-28 20:00:00 12 0 Calma 8 Noroeste 0 -- -- 89
2020-10-28 19:00:00 12.3 2 Oeste 10 Sudoeste 0 -- -- 89
2020-10-28 18:00:00 13.9 5 Oeste 18 Oeste 0 -- -- 86
2020-10-28 17:00:00 14.5 5 Oeste 17 Noroeste 0 -- -- 82
2020-10-28 16:00:00 15.1 8 Oeste 21 Oeste 0 -- -- 75
2020-10-28 15:00:00 16.9 8 Oeste 20 Oeste 0 -- -- 72
2020-10-28 14:00:00 17.5 4 Oeste 11 Oeste 0 -- -- 74
2020-10-28 13:00:00 15.2 0 Calma 14 Oeste 0 -- -- 94
2020-10-28 12:00:00 13.7 0 Calma 10 Noroeste 0 -- -- 95
2020-10-28 11:00:00 14.5 0 Calma 0 Calma 0 -- -- 95
2020-10-28 10:00:00 13 0 Calma -- -- 0 -- -- 95
2020-10-28 09:00:00 12.1 0 Calma -- -- 0.2 -- -- 95
2020-10-28 08:00:00 11.7 0 Calma -- -- 0.3 -- -- 95
2020-10-28 07:00:00 11.7 0 Calma -- -- 0 -- -- 95
2020-10-28 06:00:00 11.8 0 Calma -- -- 0 -- -- 95
2020-10-28 05:00:00 11.7 0 Calma -- -- 0 -- -- 95
2020-10-28 04:00:00 12.2 0 Calma -- -- 0 -- -- 95
2020-10-28 03:00:00 13 0 Calma -- -- 0 -- -- 95
2020-10-28 02:00:00 13 0 Calma 5 Oeste 0 -- -- 95
2020-10-28 01:00:00 13 0 Calma 7 Noroeste 0 -- -- 95
2020-10-28 00:00:00 13.2 3 Oeste 12 Oeste 0 -- -- 95
2020-10-27 23:00:00 13.2 0 Calma 9 Oeste 0.1 -- -- 95
2020-10-27 22:00:00 13.4 4 Oeste 13 Noroeste 0 -- -- 95
2020-10-27 21:00:00 13.3 2 Oeste 9 Oeste 0 -- -- 95
2020-10-27 20:00:00 13.7 0 Calma 12 Sudoeste 0.3 -- -- 95
2020-10-27 19:00:00 14.4 3 Oeste 28 Oeste 0.8 -- -- 95
2020-10-27 18:00:00 14.7 10 Oeste 31 Oeste 0.1 -- -- 95
2020-10-27 17:00:00 14.6 10 Oeste 28 Sudoeste 0.4 -- -- 95
2020-10-27 16:00:00 14.4 9 Oeste 33 Oeste 0.5 -- -- 95
2020-10-27 15:00:00 14.2 10 Oeste 30 Sudoeste 1.5 -- -- 95
2020-10-27 14:00:00 13.9 10 Oeste 28 Sudoeste 1.4 -- -- 95
2020-10-27 13:00:00 13.6 9 Oeste 27 Sudoeste 1.5 -- -- 94
2020-10-27 12:00:00 13.4 11 Oeste 32 Sudoeste 0.3 -- -- 94
2020-10-27 11:00:00 13.3 13 Oeste 30 Noroeste 0.4 -- -- 94
2020-10-27 10:00:00 13.1 11 Oeste 30 Sur 0 -- -- 94
2020-10-27 09:00:00 12.7 11 Oeste 30 Noroeste 0 -- -- 94
2020-10-27 08:00:00 12.3 10 Oeste 34 Sudoeste 0 -- -- 94
2020-10-27 07:00:00 12.2 10 Oeste 36 Oeste 0 -- -- 94
2020-10-27 06:00:00 11.7 9 Oeste 30 Sudoeste 0 -- -- 94
2020-10-27 05:00:00 11.6 6 Oeste 27 Sudoeste 0 -- -- 94
2020-10-27 04:00:00 11.7 5 Oeste 30 Oeste 0.2 -- -- 94
2020-10-27 03:00:00 12 11 Oeste 29 Oeste 0 -- -- 94
2020-10-27 02:00:00 11.8 8 Oeste 22 Oeste 0 -- -- 94
2020-10-27 01:00:00 11.2 6 Oeste 17 Oeste 0 -- -- 95
2020-10-27 00:00:00 10.8 5 Oeste 15 Oeste 0 -- -- 95